KC3SRB Weather Reports


time (UTC)temp
C
wind
direction
speed
KPH
gust
KPH
rain 1hr
cm
rain 24hr
cm
rain mn
cm
humidity
%
barometer
mb
20260906021601 19 0 0.0 0.0 0.00 0.00 0.00 76 1013.7
20260906020101 19 0 0.0 3.2 0.00 0.00 0.00 75 1013.6
20260906014554 19 0 0.0 1.6 0.00 0.00 0.00 76 1013.3
20260906013101 19 0 0.0 0.0 0.00 0.00 0.00 75 1013.3
20260906011610 19 0 0.0 0.0 0.00 0.00 0.00 77 1013.2
20260906004558 19 0 0.0 0.0 0.00 0.00 0.00 76 1012.9
20260906003055 20 0 0.0 3.2 0.00 0.00 0.00 77 1012.8
20260906001604 20 0 0.0 1.6 0.00 0.00 0.00 75 1012.8
20260906000108 20 0 0.0 3.2 0.00 0.00 0.00 74 1012.6
20260905234556 20 0 0.0 3.2 0.00 0.00 0.00 75 1012.5
20260905233106 20 0 0.0 3.2 0.00 0.00 0.00 74 1012.4
20260905231618 21 0 0.0 3.2 0.00 0.00 0.00 73 1012.3
20260905230104 22 0 0.0 3.2 0.00 0.00 0.00 72 1012.3
20260905224604 22 30 0.0 4.8 0.00 0.00 0.00 72 1012.2
20260905223101 23 0 0.0 3.2 0.00 0.00 0.00 69 1012.1
20260905221626 23 97 1.6 4.8 0.00 0.00 0.00 66 1012.0
20260905220056 24 0 1.6 4.8 0.00 0.00 0.00 61 1012.0
20260905214608 25 0 3.2 9.7 0.00 0.00 0.00 56 1011.9
20260905213104 25 0 1.6 4.8 0.00 0.00 0.00 58 1011.9
20260905211601 25 81 1.6 9.7 0.00 0.00 0.00 56 1011.9
20260905210108 26 121 1.6 6.4 0.00 0.00 0.00 55 1011.7
20260905204558 26 225 1.6 11.3 0.00 0.00 0.00 52 1011.9
20260905203053 26 221 1.6 12.9 0.00 0.00 0.00 54 1011.8
20260905201602 26 0 1.6 12.9 0.00 0.00 0.00 53 1011.9
20260905200129 26 302 4.8 11.3 0.00 0.00 0.00 53 1011.9
20260905194556 26 265 1.6 11.3 0.00 0.00 0.00 53 1012.0
20260905193058 26 96 4.8 17.7 0.00 0.00 0.00 52 1012.0
20260905191559 27 257 1.6 9.7 0.00 0.00 0.00 60 1012.0
20260905184602 27 153 3.2 12.9 0.00 0.00 0.00 55 1012.3
20260905183103 26 94 3.2 11.3 0.00 0.00 0.00 57 1012.4
20260905181607 26 315 3.2 14.5 0.00 0.00 0.00 57 1012.5
20260905180115 26 0 3.2 14.5 0.00 0.00 0.00 57 1012.7
20260905174555 26 0 3.2 11.3 0.00 0.00 0.00 55 1012.7
20260905173127 26 128 0.0 19.3 0.00 0.00 0.00 57 1012.7
20260905171602 26 234 3.2 11.3 0.00 0.00 0.00 58 1012.9
20260905170104 26 113 0.0 12.9 0.00 0.00 0.00 57 1012.9
20260905164601 26 95 3.2 12.9 0.00 0.00 0.00 59 1013.0
20260905163101 25 282 4.8 11.3 0.00 0.00 0.00 60 1013.1
20260905161559 25 244 6.4 14.5 0.00 0.00 0.00 63 1013.4
20260905160100 25 244 3.2 9.7 0.00 0.00 0.00 63 1013.6
20260905154605 25 278 0.0 4.8 0.00 0.00 0.00 64 1013.5
20260905153057 24 28 1.6 12.9 0.00 0.00 0.00 64 1013.6
20260905151559 24 0 1.6 11.3 0.00 0.00 0.00 66 1013.5
20260905150105 24 0 0.0 6.4 0.00 0.00 0.00 67 1013.7
20260905144601 24 234 3.2 16.1 0.00 0.00 0.00 69 1013.4
20260905143102 24 173 3.2 8.0 0.00 0.00 0.00 67 1013.5
20260905141559 23 0 1.6 6.4 0.00 0.00 0.00 70 1013.1
20260905140112 23 0 0.0 8.0 0.00 0.00 0.00 73 1013.0
20260905134605 22 203 1.6 4.8 0.00 0.00 0.00 73 1013.1
20260905133059 22 0 0.0 4.8 0.00 0.00 0.00 72 1013.4
20260905131555 23 0 0.0 4.8 0.00 0.00 0.00 73 1013.4
20260905130105 22 167 0.0 6.4 0.00 0.00 0.00 74 1013.2
20260905124601 22 171 1.6 8.0 0.00 0.00 0.00 75 1013.2
20260905123105 22 0 3.2 9.7 0.00 0.00 0.00 75 1013.0
20260905121602 21 112 0.0 6.4 0.00 0.00 0.00 79 1012.9
20260905120111 20 0 0.0 4.8 0.00 0.00 0.00 80 1013.1
20260905114608 20 0 0.0 1.6 0.00 0.00 0.00 83 1013.0
20260905113101 20 0 0.0 0.0 0.00 0.00 0.00 84 1012.8
20260905111655 20 0 0.0 0.0 0.00 0.00 0.00 83 1012.8
20260905110058 20 0 0.0 6.4 0.00 0.00 0.00 83 1012.8
20260905104555 20 0 0.0 0.0 0.00 0.00 0.00 84 1012.6
20260905103051 20 0 0.0 0.0 0.00 0.00 0.00 84 1012.2
20260905101601 20 0 0.0 0.0 0.00 0.00 0.00 83 1012.2
20260905100101 20 0 0.0 0.0 0.00 0.00 0.00 83 1012.0
20260905094551 20 0 0.0 3.2 0.00 0.00 0.00 81 1011.9
20260905093107 21 109 1.6 4.8 0.00 0.00 0.00 80 1012.0
20260905091601 21 0 0.0 0.0 0.00 0.00 0.00 81 1011.9
20260905090057 21 0 0.0 4.8 0.00 0.00 0.00 80 1011.7
20260905084554 21 0 0.0 1.6 0.00 0.00 0.00 80 1011.7
20260905083100 21 0 0.0 3.2 0.00 0.00 0.00 80 1011.7
20260905081559 21 0 0.0 6.4 0.00 0.00 0.00 79 1011.9
20260905080101 21 0 0.0 3.2 0.00 0.00 0.00 80 1011.9
20260905074601 21 0 0.0 8.0 0.00 0.00 0.00 79 1012.0
20260905073056 21 229 0.0 8.0 0.00 0.00 0.00 79 1012.0
20260905071603 21 89 0.0 3.2 0.00 0.00 0.00 81 1012.2
20260905070106 21 0 0.0 3.2 0.00 0.00 0.00 84 1012.1
20260905064629 21 0 0.0 3.2 0.00 0.00 0.00 84 1012.0
20260905063058 22 0 0.0 3.2 0.00 0.00 0.00 86 1012.0
20260905061604 22 0 0.0 3.2 0.00 0.00 0.00 84 1012.2
20260905060100 22 0 0.0 6.4 0.00 0.00 0.00 85 1012.2
20260905054600 22 0 0.0 4.8 0.00 0.00 0.00 84 1012.4
20260905053055 22 120 1.6 6.4 0.00 0.00 0.00 85 1012.4
20260905051604 22 0 0.0 3.2 0.00 0.00 0.00 87 1012.6
20260905050100 22 242 0.0 4.8 0.00 0.00 0.00 86 1012.8
20260905044600 22 153 0.0 3.2 0.00 0.00 0.00 86 1012.8
20260905043058 22 0 0.0 0.0 0.00 0.00 0.00 87 1012.7
20260905041604 22 0 0.0 0.0 0.00 0.00 0.00 87 1012.7
20260905034604 22 0 0.0 0.0 0.00 0.00 0.00 86 1012.9
20260905033111 22 0 0.0 0.0 0.00 0.00 0.00 87 1012.7
20260905031612 22 0 0.0 3.2 0.00 0.00 0.00 86 1012.6
20260905030115 22 0 1.6 4.8 0.00 0.00 0.00 86 1012.7
20260905024606 22 0 0.0 4.8 0.00 0.00 0.00 86 1012.6
20260905023102 22 0 0.0 0.0 0.00 0.00 0.00 86 1012.6